FENGYUN 1C DEB, 30763

Orbit data source: Space-Track

FENGYUN 1C DEB, 30763 is space debris in SSO originally from a launch on Mon, 10 May 1999 UTC launched from the Taiyaun Space Center, China (TSC). Fengyun 1C debris stems from the Chinese weather satellite Fengyun-1C, which was intentionally destroyed by a Chinese anti-satellite missile in 2007. This event dramatically increased the amount of space debris, with thousands of trackable fragments posing hazards to satellites and human spaceflight. The Fengyun 1C debris cloud has become a focal point in discussions about space sustainability and the need for international regulations to prevent the creation of new debris.

Loading next visibility...
Identifier
30763, 1999-025ATZ
Orbit
SSO
Country
Flag of CNCN / PRC
Related business
Manufacturer
Unknown
Mission
Spacecraft
Bus & Motor
Unknown
Mass
Unknown
Launch date (UTC)
1999-05-10 (27 years ago)
Launch vehicle
Unknown
Launch site
Taiyaun Space Center, China (TSC)
Object type
Payload
Rocket body
Debris
Shape & HBR
Unknown shape, 0.1 m
Radar Cross Section
Small (<0.1 m²)

Expand to show TLE details & history
Last TLE update: 13 hours ago

TLE from 13 hours ago
0 FENGYUN 1C DEB
1 30763U 99025ATZ 26107.17922358  .00009389  00000-0  16781-2 0  9991
2 30763  98.8847 193.4254 0020851 237.5291 180.3625 14.67004746989806
Epoch: 2026-04-17T04:18Z
TLE epoch observation values (Epoch: 2026-04-17T04:18:04.917Z)
Latitude
56.9123°
Longitude
-90.21635°
Altitude
694.858 km
Speed
7.506 km/s
True Right ascension
11h 58m 28s
True Declination
56° 45' 12"
Sunlit
Object was in daylight at epoch
Visualization orbit readout
Latitude
Unknown
Longitude
Unknown
Altitude
Unknown
Speed
Unknown
Apparent Right ascension
Unknown
Apparent Declination
Unknown
Sunlit
N/A
Visualization observer readout
Local Sidereal Time
23:38:15
Azimuth
Unknown
Elevation
Unknown
Doppler factor
Unknown
Orbital elements
Apogee altitude
682.442 km
Perigee altitude
653.06 km
Semi-major axis
7,045.888 km
Eccentricity
0.00209
Inclination
98.8847°
RAAN
193.4254°
Arg. of periapsis
237.5291°
True anomaly
180.36099°
Mean anomaly
180.3625°
Eccentric anomaly
180.36175°
Mean motion
3.66978 °/min
Orbital period
98.1 mins
BSTAR
0.0016781
Loading maneuver chart data...
Computing Atmospheric mass density...

Documentation

Showing up to 5 results
|